Year,Month,Day,Hour,Minute,Value (Times are PST for temperature in C)
2020,12,04,00,00,6.00
2020,12,04,00,01,6.00
2020,12,04,00,02,6.00
2020,12,04,00,03,6.00
2020,12,04,00,04,6.00
2020,12,04,00,05,6.00
2020,12,04,00,06,5.90
2020,12,04,00,07,5.90
2020,12,04,00,08,5.90
2020,12,04,00,09,5.90
2020,12,04,00,10,5.90
2020,12,04,00,11,5.90
2020,12,04,00,12,5.90
2020,12,04,00,13,5.90
2020,12,04,00,14,5.90
2020,12,04,00,15,5.80
2020,12,04,00,16,5.80
2020,12,04,00,17,5.80
2020,12,04,00,18,5.80
2020,12,04,00,19,5.80
2020,12,04,00,20,5.80
2020,12,04,00,21,5.80
2020,12,04,00,22,5.70
2020,12,04,00,23,5.70
2020,12,04,00,24,5.70
2020,12,04,00,25,5.70
2020,12,04,00,26,5.70
2020,12,04,00,27,5.70
2020,12,04,00,28,5.60
2020,12,04,00,29,5.60
2020,12,04,00,30,5.60
2020,12,04,00,31,5.60
2020,12,04,00,32,5.60
2020,12,04,00,33,5.60
2020,12,04,00,34,5.60
2020,12,04,00,35,5.60
2020,12,04,00,36,5.60
2020,12,04,00,37,5.60
2020,12,04,00,38,5.60
2020,12,04,00,39,5.60
2020,12,04,00,40,5.60
2020,12,04,00,41,5.60
2020,12,04,00,42,5.60
2020,12,04,00,43,5.60
2020,12,04,00,44,5.60
2020,12,04,00,45,5.60
2020,12,04,00,46,5.60
2020,12,04,00,47,5.60
2020,12,04,00,48,5.60
2020,12,04,00,49,5.60
2020,12,04,00,50,5.60
2020,12,04,00,51,5.60
2020,12,04,00,52,5.60
2020,12,04,00,53,5.60
2020,12,04,00,54,5.60
2020,12,04,00,55,5.60
2020,12,04,00,56,5.60
2020,12,04,00,57,5.50
2020,12,04,00,58,5.50
2020,12,04,00,59,5.50
2020,12,04,01,00,5.50
2020,12,04,01,01,5.50
2020,12,04,01,02,5.40
2020,12,04,01,03,5.40
2020,12,04,01,04,5.40
2020,12,04,01,05,5.40
2020,12,04,01,06,5.40
2020,12,04,01,07,5.40
2020,12,04,01,08,5.40
2020,12,04,01,09,5.40
2020,12,04,01,10,5.40
2020,12,04,01,11,5.40
2020,12,04,01,12,5.40
2020,12,04,01,13,5.40
2020,12,04,01,14,5.40
2020,12,04,01,15,5.40
2020,12,04,01,16,5.40
2020,12,04,01,17,5.40
2020,12,04,01,18,5.40
2020,12,04,01,19,5.40
2020,12,04,01,20,5.30
2020,12,04,01,21,5.30
2020,12,04,01,22,5.30
2020,12,04,01,23,5.30
2020,12,04,01,24,5.30
2020,12,04,01,25,5.30
2020,12,04,01,26,5.30
2020,12,04,01,27,5.30
2020,12,04,01,28,5.30
2020,12,04,01,29,5.30
2020,12,04,01,30,5.30
2020,12,04,01,31,5.30
2020,12,04,01,32,5.30
2020,12,04,01,33,5.30
2020,12,04,01,34,5.30
2020,12,04,01,35,5.30
2020,12,04,01,36,5.30
2020,12,04,01,37,5.30
2020,12,04,01,38,5.30
2020,12,04,01,39,5.30
2020,12,04,01,40,5.30
2020,12,04,01,41,5.30
2020,12,04,01,42,5.30
2020,12,04,01,43,5.30
2020,12,04,01,44,5.30
2020,12,04,01,45,5.30
2020,12,04,01,46,5.30
2020,12,04,01,47,5.30
2020,12,04,01,48,5.30
2020,12,04,01,49,5.30
2020,12,04,01,50,5.30
2020,12,04,01,51,5.30
2020,12,04,01,52,5.30
2020,12,04,01,53,5.30
2020,12,04,01,54,5.30
2020,12,04,01,55,5.30
2020,12,04,01,56,5.30
2020,12,04,01,57,5.30
2020,12,04,01,58,5.30
2020,12,04,01,59,5.30
2020,12,04,02,00,5.30
2020,12,04,02,01,5.30
2020,12,04,02,02,5.30
2020,12,04,02,03,5.30
2020,12,04,02,04,5.30
2020,12,04,02,05,5.30
2020,12,04,02,06,5.30
2020,12,04,02,07,5.30
2020,12,04,02,08,5.30
2020,12,04,02,09,5.30
2020,12,04,02,10,5.30
2020,12,04,02,11,5.30
2020,12,04,02,12,5.30
2020,12,04,02,13,5.30
2020,12,04,02,14,5.30
2020,12,04,02,15,5.30
2020,12,04,02,16,5.30
2020,12,04,02,17,5.30
2020,12,04,02,18,5.30
2020,12,04,02,19,5.30
2020,12,04,02,20,5.30
2020,12,04,02,21,5.30
2020,12,04,02,22,5.30
2020,12,04,02,23,5.30
2020,12,04,02,24,5.30
2020,12,04,02,25,5.30
2020,12,04,02,26,5.30
2020,12,04,02,27,5.30
2020,12,04,02,28,5.30
2020,12,04,02,29,5.30
2020,12,04,02,30,5.30
2020,12,04,02,31,5.30
2020,12,04,02,32,5.30
2020,12,04,02,33,5.30
2020,12,04,02,34,5.30
2020,12,04,02,35,5.30
2020,12,04,02,36,5.30
2020,12,04,02,37,5.30
2020,12,04,02,38,5.30
2020,12,04,02,39,5.30
2020,12,04,02,40,5.30
2020,12,04,02,41,5.30
2020,12,04,02,42,5.30
2020,12,04,02,43,5.40
2020,12,04,02,44,5.40
2020,12,04,02,45,5.40
2020,12,04,02,46,5.40
2020,12,04,02,47,5.40
2020,12,04,02,48,5.40
2020,12,04,02,49,5.40
2020,12,04,02,50,5.40
2020,12,04,02,51,5.40
2020,12,04,02,52,5.40
2020,12,04,02,53,5.40
2020,12,04,02,54,5.40
2020,12,04,02,55,5.40
2020,12,04,02,56,5.40
2020,12,04,02,57,5.40
2020,12,04,02,58,5.40
2020,12,04,02,59,5.30
2020,12,04,03,00,5.30
2020,12,04,03,01,5.30
2020,12,04,03,02,5.30
2020,12,04,03,03,5.30
2020,12,04,03,04,5.30
2020,12,04,03,05,5.30
2020,12,04,03,06,5.30
2020,12,04,03,07,5.30
2020,12,04,03,08,5.30
2020,12,04,03,09,5.30
2020,12,04,03,10,5.30
2020,12,04,03,11,5.30
2020,12,04,03,12,5.30
2020,12,04,03,13,5.20
2020,12,04,03,14,5.20
2020,12,04,03,15,5.20
2020,12,04,03,16,5.20
2020,12,04,03,17,5.20
2020,12,04,03,18,5.20
2020,12,04,03,19,5.20
2020,12,04,03,20,5.20
2020,12,04,03,21,5.10
2020,12,04,03,22,5.10
2020,12,04,03,23,5.10
2020,12,04,03,24,5.10
2020,12,04,03,25,5.10
2020,12,04,03,26,5.10
2020,12,04,03,27,5.10
2020,12,04,03,28,5.10
2020,12,04,03,29,5.00
2020,12,04,03,30,5.00
2020,12,04,03,31,5.00
2020,12,04,03,32,5.00
2020,12,04,03,33,4.90
2020,12,04,03,34,4.90
2020,12,04,03,35,4.90
2020,12,04,03,36,4.90
2020,12,04,03,37,4.90
2020,12,04,03,38,4.80
2020,12,04,03,39,4.80
2020,12,04,03,40,4.80
2020,12,04,03,41,4.80
2020,12,04,03,42,4.80
2020,12,04,03,43,4.80
2020,12,04,03,44,4.70
2020,12,04,03,45,4.70
2020,12,04,03,46,4.70
2020,12,04,03,47,4.70
2020,12,04,03,48,4.60
2020,12,04,03,49,4.60
2020,12,04,03,50,4.60
2020,12,04,03,51,4.60
2020,12,04,03,52,4.60
2020,12,04,03,53,4.50
2020,12,04,03,54,4.50
2020,12,04,03,55,4.50
2020,12,04,03,56,4.40
2020,12,04,03,57,4.40
2020,12,04,03,58,4.40
2020,12,04,03,59,4.40
2020,12,04,04,00,4.30
2020,12,04,04,01,4.30
2020,12,04,04,02,4.30
2020,12,04,04,03,4.30
2020,12,04,04,04,4.20
2020,12,04,04,05,4.20
2020,12,04,04,06,4.20
2020,12,04,04,07,4.20
2020,12,04,04,08,4.20
2020,12,04,04,09,4.10
2020,12,04,04,10,4.10
2020,12,04,04,11,4.10
2020,12,04,04,12,4.10
2020,12,04,04,13,4.10
2020,12,04,04,14,4.10
2020,12,04,04,15,4.10
2020,12,04,04,16,4.10
2020,12,04,04,17,4.00
2020,12,04,04,18,4.00
2020,12,04,04,19,4.00
2020,12,04,04,20,4.00
2020,12,04,04,21,4.00
2020,12,04,04,22,4.00
2020,12,04,04,23,4.00
2020,12,04,04,24,4.00
2020,12,04,04,25,4.00
2020,12,04,04,26,4.00
2020,12,04,04,27,4.10
2020,12,04,04,28,4.10
2020,12,04,04,29,4.10
2020,12,04,04,30,4.10
2020,12,04,04,31,4.10
2020,12,04,04,32,4.10
2020,12,04,04,33,4.10
2020,12,04,04,34,4.00
2020,12,04,04,35,4.00
2020,12,04,04,36,3.90
2020,12,04,04,37,3.90
2020,12,04,04,38,3.90
2020,12,04,04,39,3.90
2020,12,04,04,40,3.90
2020,12,04,04,41,3.80
2020,12,04,04,42,3.80
2020,12,04,04,43,3.80
2020,12,04,04,44,3.70
2020,12,04,04,45,3.70
2020,12,04,04,46,3.70
2020,12,04,04,47,3.70
2020,12,04,04,48,3.70
2020,12,04,04,49,3.70
2020,12,04,04,50,3.70
2020,12,04,04,51,3.70
2020,12,04,04,52,3.70
2020,12,04,04,53,3.70
2020,12,04,04,54,3.70
2020,12,04,04,55,3.70
2020,12,04,04,56,3.70
2020,12,04,04,57,3.70
2020,12,04,04,58,3.60
2020,12,04,04,59,3.60
2020,12,04,05,00,3.60
2020,12,04,05,01,3.60
2020,12,04,05,02,3.60
2020,12,04,05,03,3.60
2020,12,04,05,04,3.60
2020,12,04,05,05,3.60
2020,12,04,05,06,3.60
2020,12,04,05,07,3.60
2020,12,04,05,08,3.60
2020,12,04,05,09,3.50
2020,12,04,05,10,3.50
2020,12,04,05,11,3.50
2020,12,04,05,12,3.50
2020,12,04,05,13,3.40
2020,12,04,05,14,3.40
2020,12,04,05,15,3.40
2020,12,04,05,16,3.40
2020,12,04,05,17,3.40
2020,12,04,05,18,3.30
2020,12,04,05,19,3.30
2020,12,04,05,20,3.30
2020,12,04,05,21,3.30
2020,12,04,05,22,3.30
2020,12,04,05,23,3.30
2020,12,04,05,24,3.30
2020,12,04,05,25,3.30
2020,12,04,05,26,3.30
2020,12,04,05,27,3.30
2020,12,04,05,28,3.30
2020,12,04,05,29,3.30
2020,12,04,05,30,3.20
2020,12,04,05,31,3.20
2020,12,04,05,32,3.20
2020,12,04,05,33,3.20
2020,12,04,05,34,3.30
2020,12,04,05,35,3.30
2020,12,04,05,36,3.30
2020,12,04,05,37,3.20
2020,12,04,05,38,3.20
2020,12,04,05,39,3.20
2020,12,04,05,40,3.20
2020,12,04,05,41,3.20
2020,12,04,05,42,3.10
2020,12,04,05,43,3.10
2020,12,04,05,44,3.10
2020,12,04,05,45,3.10
2020,12,04,05,46,3.00
2020,12,04,05,47,3.00
2020,12,04,05,48,3.00
2020,12,04,05,49,2.90
2020,12,04,05,50,2.90
2020,12,04,05,51,2.90
2020,12,04,05,52,2.90
2020,12,04,05,53,2.90
2020,12,04,05,54,2.90
2020,12,04,05,55,2.90
2020,12,04,05,56,2.90
2020,12,04,05,57,2.90
2020,12,04,05,58,2.90
2020,12,04,05,59,2.90
2020,12,04,06,00,2.80
2020,12,04,06,01,2.80
2020,12,04,06,02,2.80
2020,12,04,06,03,2.80
2020,12,04,06,04,2.80
2020,12,04,06,05,2.80
2020,12,04,06,06,2.80
2020,12,04,06,07,2.80
2020,12,04,06,08,2.80
2020,12,04,06,09,2.80
2020,12,04,06,10,2.80
2020,12,04,06,11,2.80
2020,12,04,06,12,2.80
2020,12,04,06,13,2.80
2020,12,04,06,14,2.80
2020,12,04,06,15,2.80
2020,12,04,06,16,2.80
2020,12,04,06,17,2.70
2020,12,04,06,18,2.70
2020,12,04,06,19,2.70
2020,12,04,06,20,2.70
2020,12,04,06,21,2.70
2020,12,04,06,22,2.70
2020,12,04,06,23,2.70
2020,12,04,06,24,2.70
2020,12,04,06,25,2.70
2020,12,04,06,26,2.70
2020,12,04,06,27,2.70
2020,12,04,06,28,2.70
2020,12,04,06,29,2.60
2020,12,04,06,30,2.60
2020,12,04,06,31,2.60
2020,12,04,06,32,2.60
2020,12,04,06,33,2.60
2020,12,04,06,34,2.60
2020,12,04,06,35,2.60
2020,12,04,06,36,2.60
2020,12,04,06,37,2.60
2020,12,04,06,38,2.60
2020,12,04,06,39,2.60
2020,12,04,06,40,2.60
2020,12,04,06,41,2.60
2020,12,04,06,42,2.60
2020,12,04,06,43,2.60
2020,12,04,06,44,2.60
2020,12,04,06,45,2.60
2020,12,04,06,46,2.60
2020,12,04,06,47,2.60
2020,12,04,06,48,2.50
2020,12,04,06,49,2.50
2020,12,04,06,50,2.50
2020,12,04,06,51,2.50
2020,12,04,06,52,2.50
2020,12,04,06,53,2.40
2020,12,04,06,54,2.40
2020,12,04,06,55,2.40
2020,12,04,06,56,2.40
2020,12,04,06,57,2.40
2020,12,04,06,58,2.40
2020,12,04,06,59,2.40
2020,12,04,07,00,2.40
2020,12,04,07,01,2.40
2020,12,04,07,02,2.40
2020,12,04,07,03,2.40
2020,12,04,07,04,2.40
2020,12,04,07,05,2.40
2020,12,04,07,06,2.40
2020,12,04,07,07,2.40
2020,12,04,07,08,2.50
2020,12,04,07,09,2.50
2020,12,04,07,10,2.50
2020,12,04,07,11,2.60
2020,12,04,07,12,2.60
2020,12,04,07,13,2.60
2020,12,04,07,14,2.60
2020,12,04,07,15,2.60
2020,12,04,07,16,2.60
2020,12,04,07,17,2.60
2020,12,04,07,18,2.60
2020,12,04,07,19,2.60
2020,12,04,07,20,2.70
2020,12,04,07,21,2.70
2020,12,04,07,22,2.70
2020,12,04,07,23,2.70
2020,12,04,07,24,2.70
2020,12,04,07,25,2.70
2020,12,04,07,26,2.70
2020,12,04,07,27,2.70
2020,12,04,07,28,2.70
2020,12,04,07,29,2.70
2020,12,04,07,30,2.70
2020,12,04,07,31,2.70
2020,12,04,07,32,2.70
2020,12,04,07,33,2.70
2020,12,04,07,34,2.70
2020,12,04,07,35,2.70
2020,12,04,07,36,2.70
2020,12,04,07,37,2.80
2020,12,04,07,38,2.80
2020,12,04,07,39,2.80
2020,12,04,07,40,2.80
2020,12,04,07,41,2.80
2020,12,04,07,42,2.80
2020,12,04,07,43,2.80
2020,12,04,07,44,2.80
2020,12,04,07,45,2.80
2020,12,04,07,46,2.80
2020,12,04,07,47,2.80
2020,12,04,07,48,2.80
2020,12,04,07,49,2.80
2020,12,04,07,50,2.80
2020,12,04,07,51,2.80
2020,12,04,07,52,2.80
2020,12,04,07,53,2.80
2020,12,04,07,54,2.80
2020,12,04,07,55,2.80
2020,12,04,07,56,2.80
2020,12,04,07,57,2.80
2020,12,04,07,58,2.80
2020,12,04,07,59,2.80
2020,12,04,08,00,2.80
2020,12,04,08,01,2.80
2020,12,04,08,02,2.80
2020,12,04,08,03,2.80
2020,12,04,08,04,2.80
2020,12,04,08,05,2.80
2020,12,04,08,06,2.90
2020,12,04,08,07,2.90
2020,12,04,08,08,2.90
2020,12,04,08,09,2.90
2020,12,04,08,10,2.90
2020,12,04,08,11,3.00
2020,12,04,08,12,3.00
2020,12,04,08,13,3.10
2020,12,04,08,14,3.10
2020,12,04,08,15,3.10
2020,12,04,08,16,3.20
2020,12,04,08,17,3.20
2020,12,04,08,18,3.20
2020,12,04,08,19,3.20
2020,12,04,08,20,3.20
2020,12,04,08,21,3.20
2020,12,04,08,22,3.20
2020,12,04,08,23,3.20
2020,12,04,08,24,3.20
2020,12,04,08,25,3.20
2020,12,04,08,26,3.20
2020,12,04,08,27,3.20
2020,12,04,08,28,3.20
2020,12,04,08,29,3.20
2020,12,04,08,30,3.20
2020,12,04,08,31,3.20
2020,12,04,08,32,3.20
2020,12,04,08,33,3.20
2020,12,04,08,34,3.20
2020,12,04,08,35,3.20
2020,12,04,08,36,3.20
2020,12,04,08,37,3.20
2020,12,04,08,38,3.20
2020,12,04,08,39,3.20
2020,12,04,08,40,3.20
2020,12,04,08,41,3.20
2020,12,04,08,42,3.20
2020,12,04,08,43,3.20
2020,12,04,08,44,3.20
2020,12,04,08,45,3.10
2020,12,04,08,46,3.10
2020,12,04,08,47,3.10
2020,12,04,08,48,3.10
2020,12,04,08,49,3.10
2020,12,04,08,50,3.10
2020,12,04,08,51,3.10
2020,12,04,08,52,3.10
2020,12,04,08,53,3.10
2020,12,04,08,54,3.10
2020,12,04,08,55,3.10
2020,12,04,08,56,3.10
2020,12,04,08,57,3.10
2020,12,04,08,58,3.10
2020,12,04,08,59,3.10
2020,12,04,09,00,3.10
2020,12,04,09,01,3.10
2020,12,04,09,02,3.10
2020,12,04,09,03,3.10
2020,12,04,09,04,3.10
2020,12,04,09,05,3.10
2020,12,04,09,06,3.10
2020,12,04,09,07,3.10
2020,12,04,09,08,3.10
2020,12,04,09,09,3.20
2020,12,04,09,10,3.20
2020,12,04,09,11,3.20
2020,12,04,09,12,3.20
2020,12,04,09,13,3.30
2020,12,04,09,14,3.30
2020,12,04,09,15,3.30
2020,12,04,09,16,3.40
2020,12,04,09,17,3.40
2020,12,04,09,18,3.40
2020,12,04,09,19,3.50
2020,12,04,09,20,3.50
2020,12,04,09,21,3.50
2020,12,04,09,22,3.60
2020,12,04,09,23,3.60
2020,12,04,09,24,3.70
2020,12,04,09,25,3.70
2020,12,04,09,26,3.70
2020,12,04,09,27,3.70
2020,12,04,09,28,3.80
2020,12,04,09,29,3.80
2020,12,04,09,30,3.80
2020,12,04,09,31,3.80
2020,12,04,09,32,3.80
2020,12,04,09,33,3.90
2020,12,04,09,34,3.90
2020,12,04,09,35,3.90
2020,12,04,09,36,3.90
2020,12,04,09,37,4.00
2020,12,04,09,38,4.00
2020,12,04,09,39,4.10
2020,12,04,09,40,4.10
2020,12,04,09,41,4.10
2020,12,04,09,42,4.10
2020,12,04,09,43,4.20
2020,12,04,09,44,4.20
2020,12,04,09,45,4.20
2020,12,04,09,46,4.30
2020,12,04,09,47,4.30
2020,12,04,09,48,4.30
2020,12,04,09,49,4.30
2020,12,04,09,50,4.30
2020,12,04,09,51,4.30
2020,12,04,09,52,4.40
2020,12,04,09,53,4.40
2020,12,04,09,54,4.40
2020,12,04,09,55,4.50
2020,12,04,09,56,4.50
2020,12,04,09,57,4.50
2020,12,04,09,58,4.60
2020,12,04,09,59,4.60
2020,12,04,10,00,4.60
2020,12,04,10,01,4.70
2020,12,04,10,02,4.70
2020,12,04,10,03,4.70
2020,12,04,10,04,4.80
2020,12,04,10,05,4.80
2020,12,04,10,06,4.80
2020,12,04,10,07,4.80
2020,12,04,10,08,4.90
2020,12,04,10,09,4.90
2020,12,04,10,10,5.00
2020,12,04,10,11,5.00
2020,12,04,10,12,5.10
2020,12,04,10,13,5.10
2020,12,04,10,14,5.20
2020,12,04,10,15,5.20
2020,12,04,10,16,5.30
2020,12,04,10,17,5.30
2020,12,04,10,18,5.40
2020,12,04,10,19,5.40
2020,12,04,10,20,5.50
2020,12,04,10,21,5.50
2020,12,04,10,22,5.60
2020,12,04,10,23,5.60
2020,12,04,10,24,5.70
2020,12,04,10,25,5.70
2020,12,04,10,26,5.70
2020,12,04,10,27,5.80
2020,12,04,10,28,5.80
2020,12,04,10,29,5.80
2020,12,04,10,30,5.90
2020,12,04,10,31,6.00
2020,12,04,10,32,6.00
2020,12,04,10,33,6.10
2020,12,04,10,34,6.20
2020,12,04,10,35,6.30
2020,12,04,10,36,6.50
2020,12,04,10,37,6.60
2020,12,04,10,38,6.70
2020,12,04,10,39,6.80
2020,12,04,10,40,6.90
2020,12,04,10,41,7.00
2020,12,04,10,42,7.10
2020,12,04,10,43,7.20
2020,12,04,10,44,7.30
2020,12,04,10,45,7.40
2020,12,04,10,46,7.50
2020,12,04,10,47,7.50
2020,12,04,10,48,7.70
2020,12,04,10,49,7.70
2020,12,04,10,50,7.80
2020,12,04,10,51,7.90
2020,12,04,10,52,7.90
2020,12,04,10,53,8.00
2020,12,04,10,54,8.00
2020,12,04,10,55,8.00
2020,12,04,10,56,8.00
2020,12,04,10,57,8.00
2020,12,04,10,58,8.00
2020,12,04,10,59,8.00
2020,12,04,11,00,8.00
2020,12,04,11,01,8.10
2020,12,04,11,02,8.20
2020,12,04,11,03,8.20
2020,12,04,11,04,8.20
2020,12,04,11,05,8.20
2020,12,04,11,06,8.20
2020,12,04,11,07,8.30
2020,12,04,11,08,8.30
2020,12,04,11,09,8.30
2020,12,04,11,10,8.30
2020,12,04,11,11,8.40
2020,12,04,11,12,8.40
2020,12,04,11,13,8.40
2020,12,04,11,14,8.40
2020,12,04,11,15,8.40
2020,12,04,11,16,8.50
2020,12,04,11,17,8.50
2020,12,04,11,18,8.50
2020,12,04,11,19,8.50
2020,12,04,11,20,8.50
2020,12,04,11,21,8.50
2020,12,04,11,22,8.50
2020,12,04,11,23,8.60
2020,12,04,11,24,8.70
2020,12,04,11,25,8.80
2020,12,04,11,26,8.80
2020,12,04,11,27,8.80
2020,12,04,11,28,8.90
2020,12,04,11,29,8.90
2020,12,04,11,30,8.90
2020,12,04,11,31,8.90
2020,12,04,11,32,9.00
2020,12,04,11,33,9.00
2020,12,04,11,34,9.00
2020,12,04,11,35,9.00
2020,12,04,11,36,9.00
2020,12,04,11,37,9.10
2020,12,04,11,38,9.10
2020,12,04,11,39,9.20
2020,12,04,11,40,9.20
2020,12,04,11,41,9.30
2020,12,04,11,42,9.30
2020,12,04,11,43,9.30
2020,12,04,11,44,9.40
2020,12,04,11,45,9.40
2020,12,04,11,46,9.50
2020,12,04,11,47,9.60
2020,12,04,11,48,9.60
2020,12,04,11,49,9.60
2020,12,04,11,50,9.60
2020,12,04,11,51,9.70
2020,12,04,11,52,9.70
2020,12,04,11,53,9.70
2020,12,04,11,54,9.70
2020,12,04,11,55,9.70
2020,12,04,11,56,9.70
2020,12,04,11,57,9.80
2020,12,04,11,58,9.80
2020,12,04,11,59,9.80
2020,12,04,12,00,9.80
2020,12,04,12,01,9.80
2020,12,04,12,02,9.90
2020,12,04,12,03,9.90
2020,12,04,12,04,9.90
2020,12,04,12,05,10.00
2020,12,04,12,06,10.00
2020,12,04,12,07,10.10
2020,12,04,12,08,10.10
2020,12,04,12,09,10.20
2020,12,04,12,10,10.30
2020,12,04,12,11,10.30
2020,12,04,12,12,10.40
2020,12,04,12,13,10.60
2020,12,04,12,14,10.70
2020,12,04,12,15,10.80
2020,12,04,12,16,10.80
2020,12,04,12,17,10.90
2020,12,04,12,18,11.00
2020,12,04,12,19,11.10
2020,12,04,12,20,11.10
2020,12,04,12,21,11.20
2020,12,04,12,22,11.30
2020,12,04,12,23,11.40
2020,12,04,12,24,11.60
2020,12,04,12,25,11.60
2020,12,04,12,26,11.70
2020,12,04,12,27,11.80
2020,12,04,12,28,11.90
2020,12,04,12,29,12.00
2020,12,04,12,30,12.00
2020,12,04,12,31,12.10
2020,12,04,12,32,12.10
2020,12,04,12,33,12.00
2020,12,04,12,34,12.00
2020,12,04,12,35,12.10
2020,12,04,12,36,12.10
2020,12,04,12,37,12.00
2020,12,04,12,38,12.00
2020,12,04,12,39,12.10
2020,12,04,12,40,12.10
2020,12,04,12,41,12.10
2020,12,04,12,42,12.10
2020,12,04,12,43,12.20
2020,12,04,12,44,12.20
2020,12,04,12,45,12.10
2020,12,04,12,46,12.10
2020,12,04,12,47,12.00
2020,12,04,12,48,12.00
2020,12,04,12,49,11.90
2020,12,04,12,50,11.90
2020,12,04,12,51,11.90
2020,12,04,12,52,11.80
2020,12,04,12,53,11.80
2020,12,04,12,54,11.70
2020,12,04,12,55,11.70
2020,12,04,12,56,11.60
2020,12,04,12,57,11.60
2020,12,04,12,58,11.60
2020,12,04,12,59,11.60
2020,12,04,13,00,11.60
2020,12,04,13,01,11.60
2020,12,04,13,02,11.60
2020,12,04,13,03,11.60
2020,12,04,13,04,11.60
2020,12,04,13,05,11.50
2020,12,04,13,06,11.50
2020,12,04,13,07,11.40
2020,12,04,13,08,11.40
2020,12,04,13,09,11.40
2020,12,04,13,10,11.40
2020,12,04,13,11,11.40
2020,12,04,13,12,11.40
2020,12,04,13,13,11.40
2020,12,04,13,14,11.50
2020,12,04,13,15,11.50
2020,12,04,13,16,11.50
2020,12,04,13,17,11.60
2020,12,04,13,18,11.60
2020,12,04,13,19,11.60
2020,12,04,13,20,11.60
2020,12,04,13,21,11.60
2020,12,04,13,22,11.70
2020,12,04,13,23,11.70
2020,12,04,13,24,11.70
2020,12,04,13,25,11.80
2020,12,04,13,26,11.80
2020,12,04,13,27,11.80
2020,12,04,13,28,11.90
2020,12,04,13,29,11.90
2020,12,04,13,30,11.90
2020,12,04,13,31,11.90
2020,12,04,13,32,12.00
2020,12,04,13,33,12.00
2020,12,04,13,34,12.10
2020,12,04,13,35,12.20
2020,12,04,13,36,12.20
2020,12,04,13,37,12.30
2020,12,04,13,38,12.30
2020,12,04,13,39,12.40
2020,12,04,13,40,12.40
2020,12,04,13,41,12.50
2020,12,04,13,42,12.50
2020,12,04,13,43,12.60
2020,12,04,13,44,12.70
2020,12,04,13,45,12.70
2020,12,04,13,46,12.80
2020,12,04,13,47,12.90
2020,12,04,13,48,12.90
2020,12,04,13,49,12.90
2020,12,04,13,50,12.90
2020,12,04,13,51,13.00
2020,12,04,13,52,13.00
2020,12,04,13,53,13.10
2020,12,04,13,54,13.10
2020,12,04,13,55,13.20
2020,12,04,13,56,13.20
2020,12,04,13,57,13.30
2020,12,04,13,58,13.30
2020,12,04,13,59,13.30
2020,12,04,14,00,13.30
2020,12,04,14,01,13.30
2020,12,04,14,02,13.30
2020,12,04,14,03,13.30
2020,12,04,14,04,13.30
2020,12,04,14,05,13.30
2020,12,04,14,06,13.30
2020,12,04,14,07,13.30
2020,12,04,14,08,13.30
2020,12,04,14,09,13.30
2020,12,04,14,10,13.30
2020,12,04,14,11,13.30
2020,12,04,14,12,13.30
2020,12,04,14,13,13.30
2020,12,04,14,14,13.30
2020,12,04,14,15,13.30
2020,12,04,14,16,13.30
2020,12,04,14,17,13.30
2020,12,04,14,18,13.40
2020,12,04,14,19,13.40
2020,12,04,14,20,13.40
2020,12,04,14,21,13.40
2020,12,04,14,22,13.40
2020,12,04,14,23,13.40
2020,12,04,14,24,13.40
2020,12,04,14,25,13.50
2020,12,04,14,26,13.50
2020,12,04,14,27,13.50
2020,12,04,14,28,13.40
2020,12,04,14,29,13.40
2020,12,04,14,30,13.40
2020,12,04,14,31,13.40
2020,12,04,14,32,13.30
2020,12,04,14,33,13.30
2020,12,04,14,34,13.30
2020,12,04,14,35,13.30
2020,12,04,14,36,13.30
2020,12,04,14,37,13.30
2020,12,04,14,38,13.30
2020,12,04,14,39,13.30
2020,12,04,14,40,13.30
2020,12,04,14,41,13.30
2020,12,04,14,42,13.30
2020,12,04,14,43,13.30
2020,12,04,14,44,13.30
2020,12,04,14,45,13.30
2020,12,04,14,46,13.30
2020,12,04,14,47,13.30
2020,12,04,14,48,13.30
2020,12,04,14,49,13.30
2020,12,04,14,50,13.30
2020,12,04,14,51,13.30
2020,12,04,14,52,13.30
2020,12,04,14,53,13.30
2020,12,04,14,54,13.30
2020,12,04,14,55,13.30
2020,12,04,14,56,13.30
2020,12,04,14,57,13.30
2020,12,04,14,58,13.30
2020,12,04,14,59,13.30
2020,12,04,15,00,13.20
2020,12,04,15,01,13.20
2020,12,04,15,02,13.10
2020,12,04,15,03,13.10
2020,12,04,15,04,13.00
2020,12,04,15,05,12.90
2020,12,04,15,06,12.90
2020,12,04,15,07,12.80
2020,12,04,15,08,12.80
2020,12,04,15,09,12.80
2020,12,04,15,10,12.70
2020,12,04,15,11,12.70
2020,12,04,15,12,12.60
2020,12,04,15,13,12.60
2020,12,04,15,14,12.50
2020,12,04,15,15,12.40
2020,12,04,15,16,12.40
2020,12,04,15,17,12.40
2020,12,04,15,18,12.40
2020,12,04,15,19,12.30
2020,12,04,15,20,12.30
2020,12,04,15,21,12.30
2020,12,04,15,22,12.30
2020,12,04,15,23,12.20
2020,12,04,15,24,12.20
2020,12,04,15,25,12.20
2020,12,04,15,26,12.20
2020,12,04,15,27,12.20
2020,12,04,15,28,12.20
2020,12,04,15,29,12.20
2020,12,04,15,30,12.20
2020,12,04,15,31,12.20
2020,12,04,15,32,12.10
2020,12,04,15,33,12.10
2020,12,04,15,34,12.00
2020,12,04,15,35,12.00
2020,12,04,15,36,11.90
2020,12,04,15,37,11.90
2020,12,04,15,38,11.90
2020,12,04,15,39,11.80
2020,12,04,15,40,11.80
2020,12,04,15,41,11.70
2020,12,04,15,42,11.60
2020,12,04,15,43,11.50
2020,12,04,15,44,11.40
2020,12,04,15,45,11.30
2020,12,04,15,46,11.20
2020,12,04,15,47,11.10
2020,12,04,15,48,11.00
2020,12,04,15,49,11.00
2020,12,04,15,50,10.80
2020,12,04,15,51,10.80
2020,12,04,15,52,10.70
2020,12,04,15,53,10.60
2020,12,04,15,54,10.60
2020,12,04,15,55,10.50
2020,12,04,15,56,10.40
2020,12,04,15,57,10.30
2020,12,04,15,58,10.20
2020,12,04,15,59,10.10
2020,12,04,16,00,10.00
2020,12,04,16,01,9.90
2020,12,04,16,02,9.80
2020,12,04,16,03,9.60
2020,12,04,16,04,9.50
2020,12,04,16,05,9.40
2020,12,04,16,06,9.30
2020,12,04,16,07,9.20
2020,12,04,16,08,9.20
2020,12,04,16,09,9.10
2020,12,04,16,10,9.00
2020,12,04,16,11,8.90
2020,12,04,16,12,8.80
2020,12,04,16,13,8.80
2020,12,04,16,14,8.70
2020,12,04,16,15,8.60
2020,12,04,16,16,8.60
2020,12,04,16,17,8.50
2020,12,04,16,18,8.50
2020,12,04,16,19,8.40
2020,12,04,16,20,8.30
2020,12,04,16,21,8.20
2020,12,04,16,22,8.20
2020,12,04,16,23,8.10
2020,12,04,16,24,8.00
2020,12,04,16,25,8.00
2020,12,04,16,26,7.90
2020,12,04,16,27,7.90
2020,12,04,16,28,7.80
2020,12,04,16,29,7.80
2020,12,04,16,30,7.70
2020,12,04,16,31,7.60
2020,12,04,16,32,7.50
2020,12,04,16,33,7.50
2020,12,04,16,34,7.40
2020,12,04,16,35,7.30
2020,12,04,16,36,7.30
2020,12,04,16,37,7.20
2020,12,04,16,38,7.20
2020,12,04,16,39,7.20
2020,12,04,16,40,7.20
2020,12,04,16,41,7.10
2020,12,04,16,42,7.10
2020,12,04,16,43,7.00
2020,12,04,16,44,7.00
2020,12,04,16,45,7.00
2020,12,04,16,46,6.90
2020,12,04,16,47,6.90
2020,12,04,16,48,6.90
2020,12,04,16,49,6.90
2020,12,04,16,50,6.90
2020,12,04,16,51,6.80
2020,12,04,16,52,6.80
2020,12,04,16,53,6.80
2020,12,04,16,54,6.80
2020,12,04,16,55,6.80
2020,12,04,16,56,6.80
2020,12,04,16,57,6.70
2020,12,04,16,58,6.70
2020,12,04,16,59,6.70
2020,12,04,17,00,6.70
2020,12,04,17,01,6.70
2020,12,04,17,02,6.60
2020,12,04,17,03,6.60
2020,12,04,17,04,6.60
2020,12,04,17,05,6.60
2020,12,04,17,06,6.50
2020,12,04,17,07,6.50
2020,12,04,17,08,6.40
2020,12,04,17,09,6.40
2020,12,04,17,10,6.40
2020,12,04,17,11,6.30
2020,12,04,17,12,6.30
2020,12,04,17,13,6.30
2020,12,04,17,14,6.30
2020,12,04,17,15,6.20
2020,12,04,17,16,6.20
2020,12,04,17,17,6.20
2020,12,04,17,18,6.20
2020,12,04,17,19,6.20
2020,12,04,17,20,6.20
2020,12,04,17,21,6.10
2020,12,04,17,22,6.10
2020,12,04,17,23,6.00
2020,12,04,17,24,6.00
2020,12,04,17,25,5.90
2020,12,04,17,26,5.90
2020,12,04,17,27,5.90
2020,12,04,17,28,5.80
2020,12,04,17,29,5.80
2020,12,04,17,30,5.80
2020,12,04,17,31,5.80
2020,12,04,17,32,5.70
2020,12,04,17,33,5.70
2020,12,04,17,34,5.70
2020,12,04,17,35,5.70
2020,12,04,17,36,5.70
2020,12,04,17,37,5.70
2020,12,04,17,38,5.70
2020,12,04,17,39,5.70
2020,12,04,17,40,5.60
2020,12,04,17,41,5.60
2020,12,04,17,42,5.60
2020,12,04,17,43,5.60
2020,12,04,17,44,5.60
2020,12,04,17,45,5.60
2020,12,04,17,46,5.50
2020,12,04,17,47,5.50
2020,12,04,17,48,5.50
2020,12,04,17,49,5.40
2020,12,04,17,50,5.40
2020,12,04,17,51,5.40
2020,12,04,17,52,5.40
2020,12,04,17,53,5.30
2020,12,04,17,54,5.30
2020,12,04,17,55,5.30
2020,12,04,17,56,5.30